Regional Weather Roundup
Issued by NWS Midland/Odessa, TX

Skip options and go directly to product.
Home | Oldest Version | Previous Version | Current Version | All | Text Only | Save Text | Print | Product List | Glossary On

Skip product version selection by date and time.   
583
ASUS44 KMAF 301010
RWRMAF
MIDLAND AREA WEATHER ROUNDUP
NATIONAL WEATHER SERVICE MIDLAND TX
500 AM CDT TUE AUG 30 2016

...IN SOUTHWEST TEXAS AND SOUTHEAST NEW MEXICO...

CITY           SKY/WX    TMP DP  RH WIND       PRES   REMARKS
ALPINE         CLOUDY    63  62  97 N3        30.25F
ANDREWS        CLOUDY    66  66 100 NE7       30.17F
ARTESIA        CLOUDY    68  68 100 N8        30.20F
BIG SPRING     CLOUDY    73  69  88 CALM      30.14F
CARLSBAD       LGT RAIN  70  64  81 NE10      30.17S
DRYDEN           N/A     71  70  96 NE8       30.07R
FORT STOCKTON  CLOUDY    68  67  96 NW6       30.13F
GUAD PASS      NOT AVBL
HOBBS          CLOUDY    66  66 100 NE6       30.20S
MARFA          CLOUDY   N/A N/A N/A N5        30.22F
MIDLAND AIRPK  CLEAR     71  69  96 CALM      30.14S
MIDLAND INTL   CLEAR     70  67  90 NE5       30.13F
ODESSA         PTCLDY    69  66  90 NE7       30.15S
PECOS          TSTM      70  68  94 N5        30.12F
PRESIDIO       PTSUNNY   69  68  96 CALM      30.09F
SEMINOLE       PTCLDY    66  65  97 CALM      30.18F
SNYDER           N/A     71  67  87 N5        30.14S
WINK           MOCLDY    69  67  93 N6        30.12F
$$
...OTHER STATIONS IN TEXAS...

CITY           SKY/WX    TMP DP  RH WIND       PRES   REMARKS
ABILENE        MOCLDY    71  68  90 N3        30.10F
AMARILLO       CLOUDY    65  63  93 N5        30.24F
AUSTIN         PTCLDY    73  72  96 N5        29.98F
BROWNSVILLE    PTCLDY    77  74  90 W6        29.85S
CORPUS CHRISTI LGT RAIN  77  76  96 NE10      29.87F
DALLAS FTW     PTCLDY    75  69  81 N3        30.02F
DEL RIO        CLOUDY    74  73  97 CALM      29.99S
EL PASO        MOCLDY    70  61  73 E6        30.17F
HOUSTON INT    CLOUDY    75  72  90 N3        29.95S
LUBBOCK        PTCLDY    66  64  93 NE8       30.18F
SAN ANGELO     CLEAR     70  68  93 NE5       30.08F
SAN ANTONIO    MOCLDY    74  71  91 NE7       29.98S
WACO           CLEAR     72  71  97 N6        30.02F
WICHITA FALLS  NOT AVBL
$$
...OTHER LOCATIONS IN NEW MEXICO...

CITY           SKY/WX    TMP DP  RH WIND       PRES   REMARKS
ALAMAGORDO     PTCLDY    64  55  72 SE6       30.21S
ALBUQUERQUE    PTCLDY    64  52  64 E16       30.31S
CANNON AFB     CLOUDY    63  63 100 NE6       30.26S
CLOVIS         CLOUDY    63  61  94 NE8       30.26S
HOLLOMAN AFB   CLEAR     65  56  73 SE7       30.18S
ROSWELL        CLOUDY    68  61  78 NE7       30.21S
RUIDOSO          N/A     55  55 100 SE6       30.38F
SANTA FE       CLEAR     50  47  89 CALM      30.37S
TRUTH OR CONSE FAIR      64  50  60 N10       30.24S
TUCUMCARI      CLOUDY    64  63  96 E3        30.26S
$$

USA.gov is the U.S. government's official web portal to all federal, state and local government web resources and services.